Weather Roundup
Issued by NWS Springfield, MO

Home | Current Version | Previous Version | Text Only | Print | Product List | Glossary On
Versions: 1 2 3 4 5 6 7 8 9 10 11 12 13 14 15 16 17 18 19 20 21 22 23 24 25 26 27 28 29 30 31 32 33 34 35 36 37 38 39 40 41 42 43 44 45 46 47 48 49 50
000
NZUS99 KSGF 281807
HRRSGF

HOURLY WEATHER
NATIONAL WEATHER SERVICE SPRINGFIELD MO
100 PM CDT TUE JUL 28 2015

......SGF CWA......

CITY           SKY/WX    TMP DP  RH WIND       PRES   REMARKS
SPRINGFIELD    MOSUNNY   91  73  55 W9        30.01F HX  99
6HR MIN TEMP:  77; 6HR MAX TEMP:  91;

JOPLIN         SUNNY     93  72  50 SW13      29.97F HX 101
6HR MIN TEMP:  78; 6HR MAX TEMP:  93;

WEST PLAINS    SUNNY     92  73  53 VRB6      30.04F HX 100
6HR MIN TEMP:  75; 6HR MAX TEMP:  92;

ROLLA          SUNNY     91  76  61 VRB7      29.99F HX 103
6HR MIN TEMP:  76; 6HR MAX TEMP:  91;

OSAGE BEACH    SUNNY     93  73  52 SW9       29.98F HX 102
BRANSON        MOSUNNY   91  73  55 SW6       30.04F HX 100

......SURROUNDING SGF CWA......

CITY           SKY/WX    TMP DP  RH WIND       PRES   REMARKS
CHANUTE        SUNNY     93  72  50 S16       29.93F HX 101
PARSONS        SUNNY     92  73  53 S15G21    29.94F HX 100
COFFEYVILLE    SUNNY     94  73  50 S13       29.93S HX 103
EMPORIA        SUNNY     97  69  40 S21       29.88F HX 103
GROVE OK       SUNNY     95  70  43 S14       29.99S HX 101
ROGERS AR        N/A     92  73  53 MISG        N/A  HX 100
SILOAM SPRINGS SUNNY     93  70  46 SW9       30.01S HX  99
HARRISON AR    PTSUNNY   91  73  55 S6        30.04S HX  99
NEAR YELLVILLE MOSUNNY   93  72  49 S5        29.99S HX 100

......KANSAS AND MISSOURI......

CITY           SKY/WX    TMP DP  RH WIND       PRES   REMARKS
KANSAS CTY INT MOSUNNY   91  74  57 S15G23    29.90F HX 100
DOWNTOWN KC    SUNNY     95  73  48 S16G24    29.88F HX 104
COLUMBIA       SUNNY     91  77  63 SW13      29.97S HX 104
SEDALIA        SUNNY     94  73  50 S14       29.97S HX 103
ST JOSEPH      SUNNY     90  76  63 SW14G21   29.86F HX 101
ST LOUIS       MOSUNNY   95  75  52 E5        29.96F HX 107
SPIRIT OF STL  MOSUNNY   93  77  59 CALM      29.94F HX 107
KIRKSVILLE     SUNNY     92  76  59 S12       29.95F HX 104
WICHITA        MOSUNNY   96  69  41 S17G25    29.87F HX 102
TOPEKA         SUNNY     93  72  50 S14G22    29.86F HX 101
OLATHE         SUNNY     90  73  57 S16       29.92S HX  98

......TENNESSEE......

CITY           SKY/WX    TMP DP  RH WIND       PRES   REMARKS
MEMPHIS        MOSUNNY   95  76  53 W10G18    30.01S HX 108
NASHVILLE      MOSUNNY   93  72  50 W8        30.00F HX 101

......ARKANSAS.......

CITY           SKY/WX    TMP DP  RH WIND       PRES   REMARKS
FAYETTEVILLE   MOSUNNY   90  74  59 SW8       30.02F HX  99
FT SMITH       MOSUNNY   95  68  41 VRB5      29.96F HX  99
LITTLE ROCK    MOSUNNY   97  75  49 S9        29.99F HX 109

......OKLAHOMA.......

CITY           SKY/WX    TMP DP  RH WIND       PRES   REMARKS
TULSA          SUNNY     96  72  45 S16       29.92F HX 104
PONCA CITY     SUNNY     95  71  45 S13G20    29.89S HX 102
MCALESTER      SUNNY     94  70  45 S9G21     29.97F HX 100
OKLAHOMA CITY  SUNNY     92  72  51 S20       29.94S HX  99

......IOWA............

CITY           SKY/WX    TMP DP  RH WIND       PRES   REMARKS
DES MOINES     CLOUDY    83  73  72 SE22G28   29.86F
QUAD CITIES    CLOUDY    83  75  77 SE7       29.97F HX  90

......ILLINOIS........

CITY           SKY/WX    TMP DP  RH WIND       PRES   REMARKS
QUINCY         MOSUNNY   90  77  65 SW3       29.96S HX 103
CHICAGO        PTSUNNY   87  69  54 SW5       29.98S HX  91




USA.gov is the U.S. government's official web portal to all federal, state and local government web resources and services.